Weather History for Tekamah, NE

Change the Weather History Date:

Saturday, November 1, 2014

  Actual Average Record
Temperature  
Mean Temperature 36 °F -  
Max Temperature 53 °F 56 °F 81 °F (1950)
Min Temperature 21 °F 35 °F 14 °F (1993)
Degree Days  
Heating Degree Days 28    
Moisture  
Dew Point 20 °F    
Average Humidity 54    
Maximum Humidity 81    
Minimum Humidity 26    
Precipitation  
Precipitation 0.00 in - - ()
Sea Level Pressure  
Sea Level Pressure 30.31 in    
Wind  
Wind Speed 11 mph (SSE)    
Max Wind Speed 22 mph    
Max Gust Speed 29 mph    
Visibility 10 miles    
Events      
Averages and records for this station are not official NWS values.
T = Trace of Precipitation, MM = Missing Value Source: NWS Daily Summary

Daily Weather History Graph

Daily Weather History Graph

Search for Another Location

Airport:

Trip Planner

Search our weather history database for the weather conditions in past years. The results will help you decide how hot, cold, wet, or windy it might be!

Date:

Astronomy

Nov. 01, 2014 Rise Set
Actual Time 7:56 AM CDT 6:19 PM CDT
Civil Twilight 7:28 AM CDT 6:47 PM CDT
Nautical Twilight 6:55 AM CDT 7:20 PM CDT
Astronomical Twilight 6:22 AM CDT 7:53 PM CDT
Moon 3:18 PM CDT (11/1) 1:48 AM CDT (11/1)
Length of Visible Light 11h 19m
Length of Day
10h 22m
Waxing Gibbous, 68% of the Moon is Illuminated
Nov 1
Waxing Gibbous
Nov 6
Full
Nov 14
Last Quarter
Nov 22
New
Nov 29
First Quarter

Hourly Weather History & Observations

Time (CDT) Temp. Windchill Dew Point Humidity Pressure Visibility Wind Dir Wind Speed Gust Speed Precip Events Conditions
12:54 AM 26.1 °F 17.6 °F 18.0 °F 71% 30.49 in 10.0 mi ESE 8.1 mph - N/A   Clear
1:54 AM 24.1 °F 16.0 °F 16.0 °F 71% 30.48 in 10.0 mi SE 6.9 mph - N/A   Clear
2:54 AM 21.9 °F 17.2 °F 16.0 °F 78% 30.47 in 10.0 mi South 3.5 mph - N/A   Clear
3:54 AM 21.0 °F 11.4 °F 16.0 °F 81% 30.46 in 10.0 mi SE 8.1 mph - N/A   Clear
4:54 AM 21.9 °F 15.7 °F 16.0 °F 78% 30.45 in 10.0 mi SSE 4.6 mph - N/A   Clear
5:54 AM 24.1 °F 14.4 °F 18.0 °F 77% 30.43 in 10.0 mi SE 9.2 mph - N/A   Clear
6:54 AM 25.0 °F 14.8 °F 18.0 °F 75% 30.43 in 10.0 mi SE 10.4 mph - N/A   Clear
7:54 AM 24.1 °F 18.2 °F 18.0 °F 77% 30.44 in 10.0 mi South 4.6 mph - N/A   Clear
8:54 AM 30.0 °F 21.1 °F 21.9 °F 72% 30.42 in 10.0 mi SE 10.4 mph - N/A   Clear
9:54 AM 35.1 °F 25.5 °F 23.0 °F 61% 30.42 in 10.0 mi SSE 15.0 mph - N/A   Clear
10:54 AM 39.9 °F 30.0 °F 21.0 °F 47% 30.38 in 10.0 mi SSE 21.9 mph - N/A   Clear
11:54 AM 44.1 °F 35.4 °F 21.0 °F 40% 30.35 in 10.0 mi SSE 21.9 mph - N/A   Clear
12:54 PM 46.0 °F 38.0 °F 21.0 °F 37% 30.31 in 10.0 mi SSE 21.9 mph 28.8 mph N/A   Clear
1:54 PM 50.0 °F - 19.9 °F 31% 30.27 in 10.0 mi SSE 20.7 mph - N/A   Clear
2:54 PM 51.1 °F - 21.0 °F 31% 30.23 in 10.0 mi SSE 19.6 mph - N/A   Clear
3:54 PM 52.0 °F - 19.0 °F 27% 30.20 in 10.0 mi SSE 21.9 mph - N/A   Clear
4:54 PM 52.0 °F - 18.0 °F 26% 30.18 in 10.0 mi SSE 21.9 mph 27.6 mph N/A   Clear
5:54 PM 50.0 °F - 19.0 °F 29% 30.15 in 10.0 mi SSE 17.3 mph 26.5 mph N/A   Clear
6:54 PM 46.9 °F - 19.0 °F 33% 30.15 in 10.0 mi SSE 17.3 mph - N/A   Clear
7:54 PM 44.1 °F 37.1 °F 21.9 °F 42% 30.16 in 10.0 mi SE 15.0 mph - N/A   Clear
8:54 PM 42.1 °F 34.9 °F 23.0 °F 47% 30.15 in 10.0 mi SE 13.8 mph - N/A   Clear
9:54 PM 41.0 °F 33.5 °F 23.0 °F 49% 30.15 in 10.0 mi SE 13.8 mph - N/A   Clear
10:54 PM 39.0 °F 31.4 °F 23.0 °F 53% 30.14 in 10.0 mi SE 12.7 mph - N/A   Clear
11:54 PM 39.0 °F 32.3 °F 24.1 °F 55% 30.13 in 10.0 mi SSE 10.4 mph - N/A   Clear